#timestamp,LO_Frequency,Hit,StdDev 
1561899615.8,286047000.9,P
1561899635.6,286047000.4,N
1561899655.4,286046999.0,N
1561899675.3,286046998.1,N
1561899695.1,286047001.2,N
1561899715.9,286047000.7,N
1561899735.7,286047000.9,N
1561899755.5,286047000.0,N
1561899775.4,286047001.0,N
1561899795.2,286047000.8,N
1561899815.0,286047002.3,N
1561899815.9,286047002.3,N
1561899835.8,286047003.8,N
1561899855.6,286047002.1,N
1561899875.5,286047001.0,N
1561899895.3,286047000.8,N
1561899915.1,286046999.0,N
1561899935.9,286046996.9,N
1561899955.7,286046998.3,N
1561899975.5,286046998.4,N
1561899995.4,286047000.7,N
1561900015.2,286047001.1,N
1561900035.1,286046999.8,N
1561900036.0,286046999.8,N
1561900055.8,286046998.5,N
1561900075.6,286047000.7,N
1561900095.5,286047000.4,N
1561900115.3,286047000.3,N
1561900135.1,286047000.0,N
1561900155.9,286047001.2,N
1561900175.7,286047001.0,N
1561900195.6,286047001.1,N
1561900215.4,286046998.2,N
1561900235.2,286046999.3,N
1561900255.1,286046998.7,N
1561900256.0,286046998.7,N
1561900275.8,286046999.6,N
1561900295.6,286046995.1,Y
1561900315.5,286046994.9,P
1561900335.3,286046995.0,N
1561900355.2,286046997.5,N
1561900375.9,286046997.6,N
1561900395.7,286046996.8,N
1561900415.6,286046998.5,N
1561900435.4,286046999.5,N
1561900455.2,286046998.6,N
1561900475.1,286047000.7,N
1561900476.0,286047000.7,N
1561900495.8,286047000.2,N
1561900515.7,286046998.9,N
1561900535.5,286046998.8,N
1561900555.3,286046997.7,N
1561900575.2,286046995.0,N
1561900595.0,286046995.4,N
1561900595.9,286046995.4,N
1561900615.8,286046995.5,N
1561900635.6,286046995.6,N
1561900655.4,286046996.9,N
1561900675.3,286046999.2,N
1561900695.1,286046998.3,N
1561900715.8,286046999.1,N
1561900735.7,286047001.2,N
1561900755.5,286047001.1,N
1561900775.4,286046998.3,N
1561900795.2,286046998.5,N
1561900815.0,286047000.7,N
1561900815.9,286047000.7,N
1561900835.8,286046998.7,N
1561900855.6,286046999.0,N
1561900875.4,286046999.5,N
1561900895.3,286046999.6,N
1561900915.1,286046998.7,N
1561900935.8,286047001.2,N
1561900955.7,286047000.9,N
1561900975.5,286047002.2,N
1561900995.4,286047000.4,N
1561901015.2,286046999.7,N
1561901035.0,286047002.7,N
1561901035.9,286047002.7,N
1561901055.8,286046999.7,N
1561901075.6,286047001.6,N
1561901095.4,286047004.4,N
1561901115.3,286047001.9,N
1561901135.1,286047002.5,N
1561901155.9,286046998.6,N
1561901175.7,286046998.1,N
1561901195.5,286047001.2,N
1561901215.4,286047000.1,N
1561901235.2,286047001.3,N
1561901255.0,286047004.0,N
1561901256.0,286047004.0,N
1561901275.8,286047002.9,N
1561901295.6,286047004.3,N
1561901315.5,286047006.0,Y
1561901335.3,286047004.2,P
1561901355.1,286047004.1,N
1561901375.9,286047000.1,N
1561901395.7,286047002.8,N
1561901415.6,286047000.1,N
1561901435.4,286046996.5,N
1561901455.2,286047000.4,N
1561901475.1,286047001.2,N
1561901476.0,286047001.2,N
1561901495.8,286046998.5,N
1561901515.6,286046998.1,N
1561901535.5,286046999.3,N
1561901555.3,286046997.8,N
1561901575.2,286046998.0,N
1561901595.9,286046994.9,N
1561901615.7,286046997.6,N
1561901635.6,286046995.3,N
1561901655.4,286046996.9,N
1561901675.3,286046997.4,N
1561901695.1,286046997.5,N
1561901696.0,286046997.5,N
1561901715.8,286046998.0,N
1561901735.7,286046994.9,N
1561901755.5,286046998.9,N
1561901775.3,286047001.2,N
1561901795.2,286047000.7,N
1561901815.0,286046998.1,N
1561901815.9,286046998.1,N
1561901835.8,286046998.3,N
1561901855.6,286047000.5,N
1561901875.4,286047001.1,N
1561901895.3,286046998.9,N
1561901915.1,286046999.3,N
1561901935.9,286046996.8,N
1561901955.7,286046998.0,N
1561901975.5,286046995.1,N
1561901995.4,286046997.5,N
1561902015.2,286046997.2,N
1561902035.0,286046997.9,N
1561902035.9,286046997.9,N
1561902055.8,286046996.3,N
1561902075.6,286046996.4,N
1561902095.5,286046994.1,Y
1561902115.3,286046995.3,P
1561902135.1,286046997.6,N
1561902155.9,286046997.3,N
1561902175.7,286046997.5,N
1561902195.6,286046996.7,Y
1561902215.4,286046998.2,P
1561902235.2,286046998.3,P
1561902255.1,286046998.6,N
1561902256.0,286046998.6,N
1561902275.8,286047000.7,N
1561902295.6,286046996.5,Y
1561902315.5,286046997.1,P
1561902335.3,286046996.2,P
1561902355.2,286046993.3,P
1561902375.9,286046993.9,Y
1561902395.7,286046995.0,P
1561902415.6,286046994.9,P
1561902435.4,286046996.4,P
1561902455.3,286046992.4,Y
1561902475.1,286046993.7,P
1561902476.0,286046993.7,P
1561902495.8,286046993.9,P
1561902515.7,286046993.6,Y
1561902535.5,286047000.4,P
1561902555.3,286046998.2,N
1561902575.2,286046998.9,N
1561902595.0,286046999.5,N
1561902595.9,286046999.5,N
1561902615.8,286046997.5,N
1561902635.6,286046999.4,N
1561902655.4,286046996.5,N
1561902675.3,286046997.4,N
1561902695.1,286046997.9,N
1561902715.9,286046994.9,Y
1561902735.7,286046999.0,P
1561902755.5,286046996.9,P
1561902775.4,286046999.4,N
1561902795.2,286046998.2,N
1561902815.0,286046998.5,N
1561902815.9,286046998.5,N
1561902835.8,286046998.4,N
1561902855.6,286046999.5,N
1561902875.5,286046996.9,Y
1561902895.3,286046998.8,P
1561902915.1,286046998.9,P
1561902935.9,286046998.4,P
1561902955.7,286046998.8,Y
1561902975.5,286047002.7,P
1561902995.4,286047002.2,N
1561903015.2,286047000.0,N
1561903035.0,286047000.1,N
1561903036.0,286047000.1,N
1561903055.8,286047004.3,Y
1561903075.6,286047000.1,P
1561903095.5,286047000.1,N
1561903115.3,286047002.7,P
1561903135.1,286047000.2,N
1561903155.9,286046999.9,N
1561903175.7,286046998.3,N
1561903195.5,286046998.1,N
